APZ706 RKSS-RKPU

Flight info

Callsign APZ706
Flight time 0h 43m
Altitude 21000
Route OSPOT2Q OSPOT Y782 TGU Y659 LAPAL LAPAL2C
Aircraft B738/M-SDE2E3FGHIRWXY/LB1

Departure

Time 2026-05-04 07:33
Airport Gimpo International Airport (RKSS)

Arrival

Time 2026-05-04 08:16
Airport Ulsan Airport (RKPU)
Time Latitude Longitude Altitude Speed Heading
2026-05-04 07:15 37.55762 126.80333 57 ft 0 kts 45°
2026-05-04 07:19 37.55933 126.80102 58 ft 0 kts 45°
2026-05-04 07:22 37.55911 126.80073 57 ft 2 kts 45°
2026-05-04 07:22 37.55895 126.80053 66 ft 4 kts 46°
2026-05-04 07:23 37.55877 126.80028 66 ft 4 kts 56°
2026-05-04 07:23 37.55868 126.80001 59 ft 4 kts 106°
2026-05-04 07:23 37.55881 126.79979 57 ft 4 kts 135°
2026-05-04 07:23 37.55888 126.79970 63 ft 0 kts 135°
2026-05-04 07:26 37.55588 126.80318 63 ft 16 kts 187°
2026-05-04 07:27 37.55510 126.80228 65 ft 15 kts 225°
2026-05-04 07:27 37.55424 126.80192 58 ft 15 kts 139°
2026-05-04 07:27 37.55353 126.80282 64 ft 15 kts 135°
2026-05-04 07:27 37.55260 126.80399 65 ft 21 kts 135°
2026-05-04 07:28 37.55157 126.80528 66 ft 21 kts 135°
2026-05-04 07:28 37.55057 126.80655 61 ft 20 kts 135°
2026-05-04 07:28 37.54974 126.80759 64 ft 11 kts 135°
2026-05-04 07:28 37.54923 126.80822 64 ft 10 kts 142°
2026-05-04 07:29 37.54863 126.80805 61 ft 9 kts 225°
2026-05-04 07:29 37.54856 126.80796 64 ft 0 kts 224°
2026-05-04 07:30 37.54837 126.80773 58 ft 8 kts 224°
2026-05-04 07:30 37.54799 126.80721 65 ft 8 kts 243°
2026-05-04 07:30 37.54819 126.80660 64 ft 8 kts 314°
2026-05-04 07:30 37.54821 126.80658 65 ft 0 kts 315°
2026-05-04 07:33 37.58875 126.75353 3593 ft 177 kts 313°
2026-05-04 07:33 37.59777 126.74144 3854 ft 203 kts 313°
2026-05-04 07:33 37.60800 126.72768 4198 ft 222 kts 313°
2026-05-04 07:33 37.61666 126.71035 4490 ft 247 kts 289°
2026-05-04 07:34 37.61886 126.68871 5355 ft 253 kts 268°
2026-05-04 07:34 37.61405 126.66708 6252 ft 265 kts 245°
2026-05-04 07:34 37.60245 126.64839 7029 ft 276 kts 232°
2026-05-04 07:34 37.58915 126.63052 7774 ft 283 kts 231°
2026-05-04 07:35 37.57526 126.61242 8557 ft 290 kts 224°
2026-05-04 07:35 37.55671 126.60120 9313 ft 305 kts 192°
2026-05-04 07:35 37.53563 126.60193 10102 ft 313 kts 166°
2026-05-04 07:35 37.51533 126.61297 10543 ft 329 kts 144°
2026-05-04 07:36 37.49674 126.63133 10723 ft 352 kts 138°
2026-05-04 07:36 37.47772 126.65232 10903 ft 375 kts 137°
2026-05-04 07:38 37.33180 126.81466 15225 ft 415 kts 138°
2026-05-04 07:38 37.30989 126.83857 15875 ft 418 kts 138°
2026-05-04 07:38 37.28781 126.86264 16463 ft 422 kts 138°
2026-05-04 07:38 37.26548 126.88696 17036 ft 427 kts 139°
2026-05-04 07:39 37.24293 126.91150 17627 ft 431 kts 139°
2026-05-04 07:39 37.22013 126.93628 18226 ft 435 kts 139°
2026-05-04 07:39 37.19718 126.96123 18735 ft 438 kts 139°
2026-05-04 07:39 37.17429 126.98608 19218 ft 442 kts 139°
2026-05-04 07:40 37.15087 127.01150 19688 ft 447 kts 140°
2026-05-04 07:40 37.12730 127.03705 20200 ft 449 kts 140°
2026-05-04 07:40 37.10368 127.06263 20816 ft 449 kts 140°
2026-05-04 07:40 37.07999 127.08827 20976 ft 453 kts 140°
2026-05-04 07:41 37.05578 127.11444 20990 ft 465 kts 140°
2026-05-04 07:41 37.03108 127.14111 20994 ft 472 kts 140°
2026-05-04 07:41 37.00613 127.16805 20981 ft 473 kts 141°
2026-05-04 07:41 36.98126 127.19489 20969 ft 470 kts 141°
2026-05-04 07:42 36.95648 127.22160 20973 ft 468 kts 141°
2026-05-04 07:42 36.93180 127.24818 20974 ft 467 kts 141°
2026-05-04 07:42 36.90747 127.27436 20979 ft 467 kts 141°
2026-05-04 07:42 36.88274 127.30095 20979 ft 467 kts 141°
2026-05-04 07:43 36.85802 127.32749 20981 ft 468 kts 141°
2026-05-04 07:43 36.83361 127.35392 20987 ft 470 kts 140°
2026-05-04 07:43 36.81742 127.37278 20990 ft 471 kts 137°
2026-05-04 07:43 36.80804 127.38417 20994 ft 471 kts 137°
2026-05-04 07:44 36.78483 127.41316 20991 ft 472 kts 136°
2026-05-04 07:44 36.76162 127.44237 20999 ft 473 kts 136°
2026-05-04 07:44 36.73830 127.47132 20999 ft 474 kts 137°
2026-05-04 07:44 36.71474 127.50020 20990 ft 474 kts 137°
2026-05-04 07:45 36.69117 127.52895 20993 ft 475 kts 137°
2026-05-04 07:45 36.66785 127.55741 21000 ft 475 kts 137°
2026-05-04 07:45 36.64420 127.58626 20989 ft 475 kts 137°
2026-05-04 07:45 36.62058 127.61510 20978 ft 475 kts 137°
2026-05-04 07:46 36.59691 127.64396 20986 ft 474 kts 137°
2026-05-04 07:46 36.57335 127.67268 20980 ft 474 kts 137°
2026-05-04 07:46 36.54980 127.70136 20975 ft 474 kts 137°
2026-05-04 07:46 36.52626 127.73001 20978 ft 473 kts 137°
2026-05-04 07:47 36.50269 127.75866 20975 ft 473 kts 137°
2026-05-04 07:47 36.47942 127.78692 20980 ft 473 kts 137°
2026-05-04 07:47 36.45580 127.81555 20965 ft 474 kts 138°
2026-05-04 07:49 36.29085 128.01567 20895 ft 460 kts 138°
2026-05-04 07:49 36.26825 128.04301 20790 ft 447 kts 138°
2026-05-04 07:49 36.24659 128.06915 20659 ft 434 kts 138°
2026-05-04 07:50 36.22505 128.09510 20263 ft 429 kts 138°
2026-05-04 07:50 36.20361 128.12085 19773 ft 428 kts 138°
2026-05-04 07:50 36.18232 128.14641 19331 ft 425 kts 138°
2026-05-04 07:50 36.16120 128.17178 18901 ft 422 kts 137°
2026-05-04 07:51 36.14019 128.19699 18495 ft 418 kts 137°
2026-05-04 07:51 36.11938 128.22195 18089 ft 415 kts 137°
2026-05-04 07:51 36.09871 128.24673 17577 ft 413 kts 137°
2026-05-04 07:51 36.07830 128.27117 17097 ft 411 kts 137°
2026-05-04 07:52 36.05776 128.29577 16692 ft 408 kts 136°
2026-05-04 07:52 36.03747 128.32004 16248 ft 405 kts 136°
2026-05-04 07:52 36.01716 128.34430 15776 ft 403 kts 136°
2026-05-04 07:52 35.99704 128.36833 15355 ft 400 kts 135°
2026-05-04 07:53 35.97736 128.39183 14960 ft 397 kts 135°
2026-05-04 07:54 35.84160 128.55348 12097 ft 376 kts 134°
2026-05-04 07:55 35.82584 128.57878 11659 ft 371 kts 113°
2026-05-04 07:55 35.81856 128.60853 11445 ft 355 kts 93°
2026-05-04 07:55 35.81866 128.63775 11374 ft 337 kts 76°
2026-05-04 07:55 35.82330 128.66543 11310 ft 323 kts 71°
2026-05-04 07:56 35.82856 128.69194 11246 ft 313 kts 71°
2026-05-04 07:56 35.83375 128.71747 11130 ft 299 kts 71°
2026-05-04 07:56 35.83864 128.74175 11016 ft 284 kts 71°
2026-05-04 07:56 35.84330 128.76514 10771 ft 280 kts 71°
2026-05-04 07:57 35.84785 128.78812 10529 ft 278 kts 71°
2026-05-04 07:57 35.85238 128.81126 10260 ft 277 kts 72°
2026-05-04 07:57 35.85687 128.83436 10068 ft 274 kts 72°
2026-05-04 07:57 35.86130 128.85727 9902 ft 274 kts 72°
2026-05-04 07:58 35.86564 128.87985 9727 ft 274 kts 72°
2026-05-04 07:58 35.87007 128.90286 9562 ft 276 kts 72°
2026-05-04 07:58 35.87449 128.92597 9365 ft 277 kts 72°
2026-05-04 07:58 35.87890 128.94901 9164 ft 274 kts 72°
2026-05-04 07:59 35.88326 128.97183 8988 ft 272 kts 72°
2026-05-04 07:59 35.88758 128.99454 8803 ft 271 kts 72°
2026-05-04 07:59 35.89190 129.01722 8628 ft 272 kts 72°
2026-05-04 07:59 35.89622 129.03996 8457 ft 273 kts 72°
2026-05-04 08:00 35.90007 129.06288 8257 ft 276 kts 83°
2026-05-04 08:00 35.89686 129.08594 8063 ft 281 kts 114°
2026-05-04 08:00 35.88561 129.10553 7909 ft 280 kts 133°
2026-05-04 08:02 35.79101 129.22313 6805 ft 271 kts 135°
2026-05-04 08:02 35.77782 129.23959 6685 ft 269 kts 135°
2026-05-04 08:02 35.76470 129.25598 6555 ft 270 kts 135°
2026-05-04 08:03 35.75593 129.26696 6476 ft 272 kts 135°
2026-05-04 08:03 35.73808 129.28926 6324 ft 275 kts 135°
2026-05-04 08:03 35.72915 129.30043 6233 ft 275 kts 135°
2026-05-04 08:03 35.71121 129.32286 6056 ft 274 kts 135°
2026-05-04 08:04 35.70234 129.33395 5984 ft 275 kts 135°
2026-05-04 08:04 35.68889 129.35075 5848 ft 276 kts 135°
2026-05-04 08:04 35.67113 129.37297 5662 ft 272 kts 135°
2026-05-04 08:04 35.66221 129.38414 5560 ft 269 kts 135°
2026-05-04 08:05 35.64918 129.40040 5431 ft 265 kts 135°
2026-05-04 08:05 35.63615 129.41666 5315 ft 268 kts 135°
2026-05-04 08:05 35.62299 129.43304 5186 ft 270 kts 135°
2026-05-04 08:05 35.60988 129.44930 5085 ft 272 kts 135°
2026-05-04 08:06 35.59657 129.46591 5041 ft 273 kts 135°
2026-05-04 08:06 35.58327 129.48250 5011 ft 270 kts 135°
2026-05-04 08:06 35.57014 129.49885 5010 ft 267 kts 135°
2026-05-04 08:06 35.55719 129.51494 4972 ft 261 kts 135°
2026-05-04 08:08 35.49529 129.50471 4072 ft 194 kts 249°
2026-05-04 08:08 35.48813 129.49060 3972 ft 195 kts 245°
2026-05-04 08:10 35.44865 129.38131 2845 ft 134 kts 294°
2026-05-04 08:11 35.45384 129.37221 2648 ft 139 kts 324°
2026-05-04 08:11 35.47166 129.36469 2276 ft 136 kts 342°
2026-05-04 08:11 35.48108 129.36243 2084 ft 136 kts 344°
2026-05-04 08:12 35.49035 129.36072 1918 ft 138 kts 349°
2026-05-04 08:12 35.49995 129.35965 1731 ft 138 kts 352°
2026-05-04 08:12 35.50952 129.35878 1527 ft 138 kts 352°
2026-05-04 08:12 35.51918 129.35797 1340 ft 140 kts 352°
2026-05-04 08:13 35.52889 129.35716 1147 ft 140 kts 352°
2026-05-04 08:13 35.53850 129.35635 928 ft 137 kts 353°
2026-05-04 08:13 35.54760 129.35562 784 ft 129 kts 352°
2026-05-04 08:13 35.55694 129.35476 632 ft 137 kts 353°
2026-05-04 08:14 35.56624 129.35392 398 ft 133 kts 355°
2026-05-04 08:14 35.57557 129.35326 238 ft 133 kts 355°
2026-05-04 08:14 35.58488 129.35243 84 ft 134 kts 354°
2026-05-04 08:16 35.59938 129.35122 56 ft 22 kts 176°
2026-05-04 08:16 35.59779 129.35136 51 ft 23 kts 175°
2026-05-04 08:16 35.59623 129.35151 54 ft 22 kts 177°
2026-05-04 08:17 35.59484 129.35161 51 ft 15 kts 176°
2026-05-04 08:17 35.59391 129.35200 53 ft 13 kts 123°
2026-05-04 08:17 35.59384 129.35305 55 ft 11 kts 86°
2026-05-04 08:17 35.59378 129.35381 54 ft 9 kts 126°
2026-05-04 08:19 35.59296 129.35498 53 ft 0 kts 88°